Location: Pinawa
(50.1500°N, 95.8830°W)
Time: 21:53:20
(UTC-05:00)

Amateur Radio Satellites - All Passes

Search period start: 20 April 2015 21:23
Search period end: 21 April 2015 21:23
Location: Pinawa, 50.1500°N, 95.8830°W

Satellite Date Start Highest point End Downlink Frequencies (MHz)
Time Altitude Azimuth
CUTE 1.7 + AOD 2 20 Apr 21:30:33 21:34:49 63° 259° (WSW) 21:39:08 437.475
CINEMA 3 20 Apr 21:38:39 21:42:56 75° 74° (ENE) 21:47:27 145.822/145.860
FUNcube-1 20 Apr 21:41:59 21:45:49 32° 66° (ENE) 21:49:48 145.935
50 SAT 20 Apr 21:42:07 21:43:35 12° 57° (ENE) 21:45:14 437.505
YUBILEINY 20 Apr 21:43:04 21:50:37 31° 60° (ENE) 21:58:15 435.215
ISS 20 Apr 21:43:10 21:44:45 13° 222° (SW) 21:46:15 145.825
M-CUBED/EXP-1 PRIME 20 Apr 21:47:41 21:50:11 14° 312° (NW) 21:52:30 437.505
DOVE 4 20 Apr 21:50:54 21:54:57 45° 262° (W) 21:59:12 437.250
VELOX 1 20 Apr 21:52:03 21:54:45 17° 59° (ENE) 21:57:34 145.980
AAUSAT CUBESAT 2 20 Apr 21:52:24 21:56:35 61° 260° (W) 22:00:48 437.432
UKube-1 20 Apr 21:56:46 22:00:34 31° 65° (ENE) 22:04:25 .
DELFI C3 20 Apr 22:03:51 22:07:55 70° 74° (ENE) 22:12:01 145.870
ZACube-1 20 Apr 22:04:37 22:08:49 53° 71° (ENE) 22:13:10 437.345
AISAT 20 Apr 22:06:51 22:10:13 22° 62° (ENE) 22:13:40 437.250
BRITE-PL 20 Apr 22:11:57 22:14:15 14° 274° (W) 22:16:26 437.365/2234.400
CUBEBUG 1 20 Apr 22:14:28 22:16:34 14° 57° (ENE) 22:18:49 437.445
CUBEBUG 2 20 Apr 22:15:12 22:19:32 86° 256° (WSW) 22:24:04 437.445
PHONESAT 2.4 20 Apr 22:15:19 22:17:37 16° 172° (S) 22:19:56 2401.200-2431.200
Oscar 11 20 Apr 22:17:08 22:21:29 69° 259° (W) 22:25:51 145.826/435.025
STRAND 1 20 Apr 22:24:38 22:27:59 17° 304° (NW) 22:31:11 437.568
ESTCUBE 1 20 Apr 22:26:34 22:29:48 20° 61° (ENE) 22:33:08 437.505/2401.250
GOMX 1 20 Apr 22:27:31 22:30:04 15° 274° (W) 22:32:31 467.674
Cosmos 2499 20 Apr 22:39:04 22:45:24 20° 309° (NW) 22:51:20 435.465 / 435.565
DX 1 20 Apr 22:41:10 22:45:31 85° 75° (ENE) 22:49:53 434.975-435.025
VERMONT LUNAR 20 Apr 22:41:34 22:43:41 16° 186° (S) 22:45:47 437.305
COMPASS 1 20 Apr 22:42:09 22:45:14 19° 271° (W) 22:48:14 437.405
HUMSAT D 20 Apr 22:44:44 22:48:54 68° 73° (ENE) 22:53:11 437.325/437.525
UWE-3 20 Apr 22:53:28 22:57:37 44° 262° (W) 23:01:54 435.000/436.395/437.385
SO-50 20 Apr 22:53:30 22:58:03 36° 241° (WSW) 23:02:31 436.795
TIGRISAT 20 Apr 22:55:02 22:57:52 16° 87° (E) 23:00:53 435.000
UNISAT 6 20 Apr 22:56:38 22:59:39 17° 87° (E) 23:02:49 437.425
SEEDS 20 Apr 23:01:02 23:02:24 11° 276° (W) 23:03:33 437.485
HO-68 20 Apr 23:04:52 23:09:40 18° 276° (W) 23:14:11 435.675
O/OREOS (USA 219) 20 Apr 23:08:27 23:10:48 14° 100° (E) 23:13:19 437.305
50 SAT 20 Apr 23:13:49 23:17:49 88° 77° (ENE) 23:21:54 437.505
RS-15 20 Apr 23:14:28 23:25:37 58° 34° (NE) 23:37:18 29.354- 29.394
QB50P1 20 Apr 23:17:37 23:19:20 12° 86° (E) 23:21:16 145.935-145.965
FUNcube-1 20 Apr 23:18:16 23:22:10 32° 266° (W) 23:26:08 145.935
CINEMA 3 20 Apr 23:18:31 23:20:51 14° 275° (W) 23:23:04 145.822/145.860
VELOX 1 20 Apr 23:26:26 23:30:50 74° 256° (WSW) 23:35:16 145.980
Cosmos 2491 20 Apr 23:32:23 23:40:33 48° 89° (E) 23:48:52 435.465 / 435.565
UKube-1 20 Apr 23:32:45 23:36:42 33° 264° (W) 23:40:37 .
ANTELSAT 20 Apr 23:37:34 23:42:00 39° 97° (E) 23:46:25 437.575/2403.000
YUBILEINY 20 Apr 23:39:39 23:48:27 75° 264° (W) 23:57:07 435.215
QB50P2 20 Apr 23:40:31 23:43:46 21° 91° (E) 23:47:06 145.880/145.840
DELFI C3 20 Apr 23:41:26 23:43:37 14° 273° (W) 23:45:38 145.870
AISAT 20 Apr 23:42:15 23:46:33 51° 261° (W) 23:50:52 437.250
ZACube-1 20 Apr 23:42:20 23:45:34 20° 271° (W) 23:48:45 437.345
TISAT 1 20 Apr 23:45:33 23:48:50 23° 63° (ENE) 23:52:12 437.305
CUBEBUG 1 20 Apr 23:48:00 23:52:21 89° 253° (WSW) 23:56:43 437.445
PHONESAT 2.4 20 Apr 23:52:49 23:55:08 16° 188° (S) 23:57:26 2401.200-2431.200
SPROUT 20 Apr 23:54:30 23:58:19 33° 67° (ENE) 00:02:11 437.525
CUBEBUG 2 20 Apr 23:55:49 23:57:07 11° 277° (W) 23:58:12 437.445
Cosmos 2504 20 Apr 23:58:12 00:04:25 23° 53° (NE) 00:10:33 435.465 / 435.565
ESTCUBE 1 21 Apr 00:01:49 00:06:18 61° 258° (WSW) 00:10:48 437.505/2401.250
NANOSAT C BR1 21 Apr 00:02:12 00:06:03 32° 95° (E) 00:09:56 145.865
POPSAT HIP 1 21 Apr 00:02:49 00:06:43 33° 96° (E) 00:10:37 437.405
DX 1 21 Apr 00:20:35 00:22:28 12° 274° (W) 00:24:08 434.975-435.025
HUMSAT D 21 Apr 00:22:43 00:25:13 15° 273° (W) 00:27:35 437.325/437.525
ITUPSAT 1 21 Apr 00:28:37 00:31:19 16° 56° (NE) 00:34:10 437.325
POLYITAN 1 21 Apr 00:29:47 00:34:04 62° 101° (ESE) 00:38:22 437.675
TIGRISAT 21 Apr 00:30:29 00:35:13 75° 286° (WNW) 00:39:56 435.000
UNISAT 6 21 Apr 00:32:15 00:37:00 70° 287° (WNW) 00:41:40 437.425
DUCHIFAT 1 21 Apr 00:37:40 00:41:57 72° 103° (ESE) 00:46:13 145.980
O/OREOS (USA 219) 21 Apr 00:45:03 00:49:39 81° 298° (WNW) 00:54:15 437.305
QB50P1 21 Apr 00:51:34 00:55:52 82° 287° (WNW) 01:00:10 145.935-145.965
50 SAT 21 Apr 00:52:33 00:53:22 10° 276° (W) 00:53:58 437.505
BUGSAT 1 21 Apr 00:56:47 01:00:55 82° 102° (ESE) 01:05:04 437.445
BEESAT 21 Apr 01:01:24 01:05:23 28° 63° (ENE) 01:09:27 436.000
SWISSCUBE 21 Apr 01:02:49 01:06:57 30° 64° (ENE) 01:11:08 437.505
AIST 1 21 Apr 01:04:02 01:06:44 17° 86° (E) 01:09:33
ANTELSAT 21 Apr 01:14:30 01:18:42 31° 295° (WNW) 01:22:49 437.575/2403.000
QB50P2 21 Apr 01:15:48 01:19:56 47° 290° (WNW) 01:24:04 145.880/145.840
TISAT 1 21 Apr 01:20:25 01:24:26 43° 262° (W) 01:28:28 437.305
RS-15 21 Apr 01:27:13 01:38:28 63° 240° (WSW) 01:50:08 29.354- 29.394
CUBEBUG 1 21 Apr 01:28:01 01:29:28 11° 275° (W) 01:30:43 437.445
Cosmos 2491 21 Apr 01:29:09 01:37:33 48° 292° (WNW) 01:45:58 435.465 / 435.565
SPROUT 21 Apr 01:30:38 01:34:26 30° 265° (W) 01:38:14 437.525
NANOSAT C BR1 21 Apr 01:38:05 01:41:53 31° 294° (WNW) 01:45:38 145.865
YUBILEINY 21 Apr 01:38:14 01:43:54 19° 286° (WNW) 01:49:07 435.215
POPSAT HIP 1 21 Apr 01:38:46 01:42:34 30° 294° (WNW) 01:46:19 437.405
Cosmos 2504 21 Apr 01:51:03 01:59:31 83° 80° (E) 02:07:18 435.465 / 435.565
STARS 21 Apr 01:57:01 01:59:07 14° 56° (NE) 02:01:22 437.465
ITUPSAT 1 21 Apr 02:03:47 02:08:36 88° 69° (ENE) 02:13:27 437.325
GONETS M04 21 Apr 02:05:45 02:09:31 13° 39° (NE) 02:13:44
POLYITAN 1 21 Apr 02:06:35 02:09:36 18° 299° (WNW) 02:12:32 437.675
TIGRISAT 21 Apr 02:08:59 02:11:14 13° 305° (NW) 02:13:18 435.000
UNISAT 6 21 Apr 02:10:57 02:13:00 12° 306° (NW) 02:14:52 437.425
DUCHIFAT 1 21 Apr 02:14:37 02:17:19 16° 301° (WNW) 02:19:54 145.980
KKS-1 21 Apr 02:23:37 02:27:31 32° 65° (ENE) 02:31:30 437.445
Oscar 19 21 Apr 02:24:24 02:29:10 35° 95° (E) 02:33:57 437.125/150
O/OREOS (USA 219) 21 Apr 02:26:56 02:29:53 16° 320° (NW) 02:32:42 437.305
QB50P1 21 Apr 02:29:16 02:31:07 12° 303° (WNW) 02:32:50 145.935-145.965
BUGSAT 1 21 Apr 02:33:44 02:35:53 14° 301° (WNW) 02:37:55 437.445
BEESAT 21 Apr 02:38:27 02:43:04 46° 261° (W) 02:47:42 436.000
AIST 1 21 Apr 02:39:45 02:44:00 57° 284° (WNW) 02:48:16
SWISSCUBE 21 Apr 02:40:09 02:44:42 41° 263° (W) 02:49:15 437.505
Gurwin Techsat 1B 21 Apr 02:46:27 02:49:53 18° 87° (E) 02:53:28 435.225
CUSAT 1 21 Apr 02:46:41 02:47:09 10° 46° (NE) 02:48:02 437.405
ITAMSAT 1 21 Apr 02:47:48 02:51:29 20° 89° (E) 02:55:17 435.822/435.867
AO-7 21 Apr 03:29:16 03:30:06 10° 76° (ENE) 03:31:38 29.400- 29.500
STARS 21 Apr 03:30:33 03:34:56 87° 79° (ENE) 03:39:24 437.465
Cosmos 2491 21 Apr 03:33:11 03:37:23 14° 320° (NW) 03:41:13 435.465 / 435.565
RS-15 21 Apr 03:41:51 03:48:50 17° 262° (W) 03:55:12 29.354- 29.394
ITUPSAT 1 21 Apr 03:44:44 03:47:15 14° 274° (W) 03:49:34 437.325
Cosmos 2504 21 Apr 03:45:35 03:52:00 25° 282° (WNW) 03:57:52 435.465 / 435.565
MOZHAYETS 4 21 Apr 03:49:25 03:52:43 20° 61° (ENE) 03:56:08
JAS-2 21 Apr 03:57:09 04:00:39 15° 78° (ENE) 04:04:16 435.910
KKS-1 21 Apr 04:00:05 04:04:08 34° 264° (W) 04:08:12 437.445
GONETS M04 21 Apr 04:00:57 04:09:25 47° 68° (ENE) 04:17:54
Oscar 19 21 Apr 04:03:45 04:08:35 39° 295° (WNW) 04:13:23 437.125/150
Gurwin Techsat 1B 21 Apr 04:25:14 04:30:35 79° 288° (WNW) 04:35:54 435.225
CUSAT 1 21 Apr 04:25:28 04:31:41 40° 68° (ENE) 04:39:09 437.405
ITAMSAT 1 21 Apr 04:26:23 04:31:33 69° 289° (WNW) 04:36:42 435.822/435.867
HORYU 2 21 Apr 04:29:49 04:33:48 30° 95° (E) 04:37:46 437.375
DANDE 21 Apr 04:30:28 04:36:16 36° 67° (ENE) 04:43:26 436.750
BEESAT 2 21 Apr 04:31:01 04:34:11 22° 116° (ESE) 04:37:27 435.950
Cosmos 2499 21 Apr 04:35:52 04:40:36 17° 46° (NE) 04:45:26 435.465 / 435.565
BEESAT 3 21 Apr 04:36:02 04:39:32 28° 118° (ESE) 04:43:06 437.485
AUBIESAT-1 21 Apr 04:43:28 04:46:36 18° 51° (NE) 04:49:50 437.475
AIST 2 21 Apr 04:59:58 05:02:31 16° 113° (ESE) 05:05:13 435.215
STARS 21 Apr 05:10:16 05:12:08 12° 275° (W) 05:13:49 437.465
CUBESAT XI-V 21 Apr 05:12:35 05:14:41 13° 56° (NE) 05:16:58 437.345
AO-7 21 Apr 05:17:17 05:25:20 51° 100° (E) 05:33:25 29.400- 29.500
MOZHAYETS 4 21 Apr 05:24:56 05:29:33 64° 259° (W) 05:34:13
M-CUBED/EXP-1 PRIME 21 Apr 05:29:04 05:33:34 41° 62° (ENE) 05:38:09 437.505
JAS-2 21 Apr 05:40:21 05:47:18 76° 103° (ESE) 05:53:22 435.910
GONETS M04 21 Apr 05:58:00 06:06:27 50° 271° (W) 06:14:47
HORYU 2 21 Apr 06:06:20 06:10:31 37° 294° (WNW) 06:14:38 437.375
Gurwin Techsat 1B 21 Apr 06:06:38 06:09:50 16° 306° (NW) 06:12:52 435.225
ITAMSAT 1 21 Apr 06:07:38 06:10:14 14° 308° (NW) 06:12:38 435.822/435.867
BEESAT 2 21 Apr 06:07:55 06:12:00 57° 315° (NW) 06:16:08 435.950
CUSAT 1 21 Apr 06:08:03 06:14:39 54° 264° (W) 06:22:27 437.405
DANDE 21 Apr 06:13:24 06:19:49 60° 263° (W) 06:27:44 436.750
BEESAT 3 21 Apr 06:13:26 06:17:24 45° 318° (NW) 06:21:25 437.485
AUBIESAT-1 21 Apr 06:16:00 06:20:47 90° 80° (E) 06:25:39 437.475
PRISM 21 Apr 06:20:22 06:24:04 32° 66° (ENE) 06:27:49 437.425
STRAND 1 21 Apr 06:26:28 06:30:59 33° 64° (ENE) 06:35:34 437.568
Cosmos 2499 21 Apr 06:27:54 06:36:00 62° 73° (ENE) 06:43:27 435.465 / 435.565
AIST 2 21 Apr 06:36:19 06:40:36 80° 311° (NW) 06:44:57 435.215
CUTE-I 21 Apr 06:38:23 06:41:58 19° 88° (E) 06:45:42 437.470
Cubesat XI-IV 21 Apr 06:46:10 06:50:09 22° 89° (E) 06:54:15 437.490
CUBESAT XI-V 21 Apr 06:46:48 06:51:27 80° 76° (ENE) 06:56:06 437.345
M-CUBED/EXP-1 PRIME 21 Apr 07:04:09 07:08:29 33° 260° (W) 07:12:51 437.505
AO-7 21 Apr 07:10:18 07:18:12 48° 302° (WNW) 07:26:01 29.400- 29.500
JAS-2 21 Apr 07:26:04 07:31:42 26° 306° (NW) 07:36:42 435.910
O/OREOS (USA 219) 21 Apr 07:33:19 07:35:24 13° 36° (NE) 07:37:36 437.305
BEESAT 2 21 Apr 07:48:14 07:50:59 17° 337° (NNW) 07:53:42 435.950
AUBIESAT-1 21 Apr 07:53:34 07:56:17 14° 269° (W) 07:58:48 437.475
CUSAT 1 21 Apr 07:53:47 07:56:32 12° 280° (W) 07:58:57 437.405
BEESAT 3 21 Apr 07:54:00 07:56:25 15° 340° (NNW) 07:58:49 437.485
PRISM 21 Apr 07:55:50 07:59:33 30° 264° (W) 08:03:15 437.425
GONETS M04 21 Apr 07:59:08 08:01:13 11° 293° (WNW) 08:02:41
DANDE 21 Apr 07:59:08 08:02:24 13° 278° (W) 08:05:28 436.750
STRAND 1 21 Apr 08:05:18 08:10:08 41° 262° (W) 08:14:58 437.568
AIST 2 21 Apr 08:16:35 08:19:52 20° 333° (NNW) 08:23:07 435.215
CUTE-I 21 Apr 08:17:23 08:22:43 76° 288° (WNW) 08:28:01 437.470
Cosmos 2499 21 Apr 08:21:40 08:28:42 33° 277° (W) 08:35:07 435.465 / 435.565
Cubesat XI-IV 21 Apr 08:25:29 08:30:47 65° 290° (WNW) 08:36:03 437.490
CUBESAT XI-V 21 Apr 08:26:57 08:29:34 14° 274° (W) 08:32:00 437.345
BRITE-PL 21 Apr 08:30:53 08:33:57 17° 88° (E) 08:37:20 437.365/2234.400
HO-68 21 Apr 08:37:43 08:41:37 16° 82° (E) 08:45:53 435.675
GOMX 1 21 Apr 08:44:32 08:47:25 16° 87° (E) 08:50:35 467.674
CANX-2 21 Apr 09:02:29 09:04:57 15° 87° (E) 09:07:33 2200.000
SEEDS 21 Apr 09:03:28 09:04:55 12° 85° (E) 09:06:34 437.485
AO-7 21 Apr 09:04:18 09:09:11 17° 325° (NW) 09:13:48 29.400- 29.500
PCSat 21 Apr 09:07:54 09:10:57 16° 106° (ESE) 09:14:12 145.827
ANTELSAT 21 Apr 09:09:19 09:09:28 10° 52° (NE) 09:09:50 437.575/2403.000
O/OREOS (USA 219) 21 Apr 09:11:22 09:15:52 61° 59° (ENE) 09:20:18 437.305
CUTE 1.7 + AOD 2 21 Apr 09:12:10 09:14:58 17° 88° (E) 09:17:53 437.475
BEESAT 2 21 Apr 09:29:41 09:30:44 11° 1° (N) 09:31:47 435.950
CINEMA 3 21 Apr 09:29:43 09:32:30 15° 86° (E) 09:35:30 145.822/145.860
AAUSAT CUBESAT 2 21 Apr 09:31:56 09:34:31 16° 88° (E) 09:37:14 437.432
BEESAT 3 21 Apr 09:35:05 09:36:07 11° 4° (N) 09:37:09 437.485
Cosmos 2491 21 Apr 09:36:24 09:44:02 32° 60° (ENE) 09:51:50 435.465 / 435.565
DOVE 4 21 Apr 09:44:21 09:48:52 35° 95° (E) 09:53:38 437.250
POLYITAN 1 21 Apr 09:54:25 09:56:09 13° 57° (ENE) 09:58:02 437.675
TIGRISAT 21 Apr 09:58:07 10:01:43 24° 62° (ENE) 10:05:28 435.000
AIST 2 21 Apr 09:58:29 10:00:00 12° 356° (N) 10:01:30 435.215
CUTE-I 21 Apr 09:58:58 10:02:02 15° 307° (NW) 10:04:55 437.470
UNISAT 6 21 Apr 09:59:57 10:03:40 26° 63° (ENE) 10:07:32 437.425
Oscar 11 21 Apr 10:00:55 10:03:37 16° 88° (E) 10:06:28 145.826/435.025
DUCHIFAT 1 21 Apr 10:01:19 10:03:24 14° 58° (ENE) 10:05:37 145.980
CUBEBUG 2 21 Apr 10:02:32 10:05:31 17° 87° (E) 10:08:40 437.445
Cubesat XI-IV 21 Apr 10:07:25 10:10:00 13° 309° (NW) 10:12:24 437.490
BRITE-PL 21 Apr 10:08:12 10:13:00 76° 287° (WNW) 10:18:12 437.365/2234.400
QB50P1 21 Apr 10:14:36 10:17:27 18° 61° (ENE) 10:20:24 145.935-145.965
BUGSAT 1 21 Apr 10:18:20 10:20:22 14° 59° (ENE) 10:22:31 437.445
COMPASS 1 21 Apr 10:19:33 10:23:43 53° 100° (E) 10:27:50 437.405
GOMX 1 21 Apr 10:21:15 10:26:09 84° 285° (WNW) 10:31:23 467.674
HO-68 21 Apr 10:23:36 10:30:50 72° 105° (ESE) 10:38:00 435.675
DX 1 21 Apr 10:27:35 10:28:20 10° 85° (E) 10:29:19 434.975-435.025
CANX-2 21 Apr 10:37:07 10:41:26 67° 286° (WNW) 10:45:40 2200.000
SEEDS 21 Apr 10:37:08 10:41:26 86° 280° (W) 10:45:41 437.485
QB50P2 21 Apr 10:37:53 10:41:31 29° 66° (ENE) 10:45:14 145.880/145.840
UWE-3 21 Apr 10:38:37 10:42:39 29° 93° (E) 10:46:46 435.000/436.395/437.385
ANTELSAT 21 Apr 10:40:54 10:45:20 58° 71° (ENE) 10:49:55 437.575/2403.000
CUTE 1.7 + AOD 2 21 Apr 10:47:04 10:51:19 59° 288° (WNW) 10:55:32 437.475
PCSat 21 Apr 10:48:13 10:53:39 84° 126° (SE) 10:59:08 145.827
YUBILEINY 21 Apr 10:51:19 10:58:20 29° 80° (E) 11:05:34 435.215
O/OREOS (USA 219) 21 Apr 10:51:41 10:54:53 19° 258° (WSW) 10:57:57 437.305
NANOSAT C BR1 21 Apr 10:59:10 11:03:09 44° 69° (ENE) 11:07:12 145.865
POPSAT HIP 1 21 Apr 11:00:01 11:04:02 45° 69° (ENE) 11:08:06 437.405
FUNcube-1 21 Apr 11:01:27 11:05:43 36° 96° (E) 11:10:00 145.935
CINEMA 3 21 Apr 11:05:27 11:10:21 83° 283° (WNW) 11:15:22 145.822/145.860
AAUSAT CUBESAT 2 21 Apr 11:06:25 11:10:36 60° 288° (WNW) 11:14:43 437.432
BEESAT 2 21 Apr 11:07:38 11:10:27 17° 24° (NNE) 11:13:17 435.950
BEESAT 3 21 Apr 11:12:38 11:15:39 19° 27° (NNE) 11:18:43 437.485
VELOX 1 21 Apr 11:13:32 11:16:05 15° 88° (E) 11:18:49 145.980
DELFI C3 21 Apr 11:13:53 11:17:57 63° 101° (E) 11:21:57 145.870
UKube-1 21 Apr 11:15:25 11:19:12 29° 95° (E) 11:23:00 .
DOVE 4 21 Apr 11:22:09 11:26:40 37° 293° (WNW) 11:31:21 437.250
ZACube-1 21 Apr 11:24:38 11:29:12 61° 101° (E) 11:33:47 437.345
POLYITAN 1 21 Apr 11:27:12 11:31:26 85° 71° (ENE) 11:35:43 437.675
AISAT 21 Apr 11:28:46 11:32:12 22° 92° (E) 11:35:44 437.250
Cosmos 2491 21 Apr 11:33:03 11:41:52 74° 265° (W) 11:50:39 435.465 / 435.565
TIGRISAT 21 Apr 11:33:51 11:38:13 48° 262° (W) 11:42:42 435.000
CUBEBUG 1 21 Apr 11:34:03 11:35:48 12° 86° (E) 11:37:44 437.445
DUCHIFAT 1 21 Apr 11:34:28 11:38:40 85° 256° (WSW) 11:42:55 145.980
UNISAT 6 21 Apr 11:35:55 11:40:15 45° 262° (W) 11:44:42 437.425
Oscar 11 21 Apr 11:35:57 11:40:18 64° 287° (WNW) 11:44:36 145.826/435.025
AIST 2 21 Apr 11:37:38 11:40:17 16° 20° (NNE) 11:42:58 435.215
CUBEBUG 2 21 Apr 11:38:01 11:42:46 73° 287° (WNW) 11:47:32 437.445
BRITE-PL 21 Apr 11:48:30 11:50:57 14° 303° (WNW) 11:53:16 437.365/2234.400
QB50P1 21 Apr 11:48:47 11:52:57 60° 259° (W) 11:57:09 145.935-145.965
ESTCUBE 1 21 Apr 11:50:32 11:53:52 21° 91° (E) 11:57:17 437.505/2401.250
BUGSAT 1 21 Apr 11:51:19 11:55:21 77° 256° (WSW) 11:59:24 437.445
COMPASS 1 21 Apr 11:55:57 11:59:05 20° 298° (WNW) 12:02:08 437.405
HUMSAT D 21 Apr 11:59:52 12:04:13 69° 102° (ESE) 12:08:33 437.325/437.525
GOMX 1 21 Apr 12:00:52 12:03:43 15° 302° (WNW) 12:06:30 467.674
DX 1 21 Apr 12:01:00 12:05:23 83° 105° (ESE) 12:09:46 434.975-435.025
Oscar 19 21 Apr 12:09:24 12:12:16 16° 54° (NE) 12:15:19 437.125/150
HO-68 21 Apr 12:11:55 12:18:05 31° 305° (NW) 12:24:06 435.675
QB50P2 21 Apr 12:13:30 12:17:22 34° 264° (W) 12:21:15 145.880/145.840
SEEDS 21 Apr 12:14:40 12:16:37 13° 303° (WNW) 12:18:24 437.485
UWE-3 21 Apr 12:14:55 12:19:19 41° 292° (WNW) 12:23:42 435.000/436.395/437.385
CANX-2 21 Apr 12:15:44 12:16:36 10° 305° (NW) 12:17:16 2200.000
ANTELSAT 21 Apr 12:19:12 12:22:33 20° 271° (W) 12:25:51 437.575/2403.000
50 SAT 21 Apr 12:21:16 12:25:22 75° 102° (ESE) 12:29:25 437.505
PCSat 21 Apr 12:33:09 12:37:44 27° 327° (NNW) 12:42:19 145.827
NANOSAT C BR1 21 Apr 12:35:54 12:39:14 22° 268° (W) 12:42:31 145.865
POPSAT HIP 1 21 Apr 12:36:52 12:40:10 21° 268° (W) 12:43:25 437.405
FUNcube-1 21 Apr 12:37:55 12:41:59 31° 294° (WNW) 12:46:02 145.935
AIST 1 21 Apr 12:41:59 12:46:12 56° 76° (ENE) 12:50:24
CINEMA 3 21 Apr 12:44:06 12:46:55 15° 303° (WNW) 12:49:38 145.822/145.860
AO-7 21 Apr 12:45:02 12:47:16 11° 23° (NNE) 12:49:44 29.400- 29.500
BEESAT 2 21 Apr 12:45:13 12:49:22 63° 46° (NE) 12:53:26 435.950
YUBILEINY 21 Apr 12:45:33 12:54:25 78° 283° (WNW) 13:03:17 435.215
Cosmos 2504 21 Apr 12:45:44 12:50:07 16° 72° (ENE) 12:54:58 435.465 / 435.565
VELOX 1 21 Apr 12:48:47 12:53:13 70° 287° (WNW) 12:57:38 145.980
DELFI C3 21 Apr 12:50:03 12:52:41 16° 299° (WNW) 12:55:11 145.870
BEESAT 3 21 Apr 12:50:11 12:54:20 79° 49° (NE) 12:58:25 437.485
UKube-1 21 Apr 12:51:26 12:55:25 35° 293° (WNW) 12:59:21 .
TISAT 1 21 Apr 13:00:43 13:03:56 21° 91° (E) 13:07:14 437.305
ZACube-1 21 Apr 13:01:45 13:05:12 21° 299° (WNW) 13:08:33 437.345
AISAT 21 Apr 13:04:47 13:09:05 48° 291° (WNW) 13:13:22 437.250
POLYITAN 1 21 Apr 13:06:24 13:08:03 12° 275° (W) 13:09:31 437.675
CUBEBUG 1 21 Apr 13:08:28 13:12:51 84° 286° (WNW) 13:17:13 437.445
SPROUT 21 Apr 13:12:10 13:16:06 33° 96° (E) 13:20:04 437.525
SO-50 21 Apr 13:12:22 13:16:15 27° 116° (ESE) 13:20:19 436.795
DUCHIFAT 1 21 Apr 13:14:47 13:15:17 10° 276° (W) 13:15:33 145.980
Oscar 11 21 Apr 13:15:13 13:15:42 10° 306° (NW) 13:15:58 145.826/435.025
AIST 2 21 Apr 13:15:42 13:19:52 48° 42° (NE) 13:23:58 435.215
CUBEBUG 2 21 Apr 13:16:34 13:18:44 13° 304° (NW) 13:20:45 437.445
ESTCUBE 1 21 Apr 13:26:42 13:31:05 52° 290° (WNW) 13:35:27 437.505/2401.250
Cosmos 2491 21 Apr 13:31:41 13:37:20 18° 286° (WNW) 13:42:34 435.465 / 435.565
HUMSAT D 21 Apr 13:36:40 13:39:32 17° 300° (WNW) 13:42:18 437.325/437.525
DX 1 21 Apr 13:38:35 13:41:06 15° 303° (WNW) 13:43:29 434.975-435.025
Oscar 19 21 Apr 13:45:45 13:50:54 79° 73° (ENE) 13:56:07 437.125/150
RS-15 21 Apr 13:52:30 13:56:21 13° 95° (E) 14:01:05 29.354- 29.394
50 SAT 21 Apr 13:57:24 13:59:42 15° 301° (WNW) 14:01:53 437.505
ITUPSAT 1 21 Apr 14:00:54 14:03:50 16° 87° (E) 14:06:56 437.325
ITAMSAT 1 21 Apr 14:09:58 14:14:54 47° 68° (ENE) 14:19:53 435.822/435.867
Gurwin Techsat 1B 21 Apr 14:11:38 14:16:36 43° 66° (ENE) 14:21:38 435.225
JAS-2 21 Apr 14:13:57 14:18:46 19° 48° (NE) 14:23:43 435.910
PCSat 21 Apr 14:20:19 14:23:04 14° 352° (N) 14:25:47 145.827
AIST 1 21 Apr 14:20:42 14:23:29 17° 274° (W) 14:26:06
ISS 21 Apr 14:23:51 14:26:04 17° 141° (SE) 14:28:20 145.825
BEESAT 2 21 Apr 14:24:05 14:27:07 19° 245° (WSW) 14:30:02 435.950
VELOX 1 21 Apr 14:27:34 14:29:03 11° 306° (NW) 14:30:20 145.980
BEESAT 3 21 Apr 14:29:26 14:31:51 15° 247° (WSW) 14:34:08 437.485
AO-7 21 Apr 14:30:41 14:37:28 30° 49° (NE) 14:44:24 29.400- 29.500
Cosmos 2504 21 Apr 14:33:19 14:42:00 63° 93° (E) 14:50:40 435.465 / 435.565
BEESAT 21 Apr 14:34:00 14:38:16 32° 95° (E) 14:42:34 436.000
SWISSCUBE 21 Apr 14:35:38 14:40:01 36° 96° (E) 14:44:24 437.505
TISAT 1 21 Apr 14:35:54 14:39:59 46° 291° (WNW) 14:44:03 437.305
YUBILEINY 21 Apr 14:46:21 14:53:03 22° 308° (NW) 14:59:27 435.215
CUBEBUG 1 21 Apr 14:46:34 14:48:35 13° 304° (WNW) 14:50:28 437.445
SPROUT 21 Apr 14:48:20 14:52:10 30° 294° (WNW) 14:55:56 437.525
SO-50 21 Apr 14:51:50 14:56:31 58° 316° (NW) 15:01:21 436.795
AIST 2 21 Apr 14:54:38 14:58:17 27° 242° (WSW) 15:01:49 435.215
STARS 21 Apr 15:17:40 15:19:17 12° 85° (E) 15:21:07 437.465
Oscar 19 21 Apr 15:27:34 15:30:58 17° 273° (W) 15:34:12 437.125/150
HORYU 2 21 Apr 15:32:22 15:36:41 49° 69° (ENE) 15:41:04 437.375
ITUPSAT 1 21 Apr 15:37:33 15:42:21 73° 287° (WNW) 15:47:05 437.325
KKS-1 21 Apr 15:46:11 15:50:14 33° 95° (E) 15:54:19 437.445
ITAMSAT 1 21 Apr 15:50:08 15:54:38 29° 267° (W) 15:59:07 435.822/435.867
Gurwin Techsat 1B 21 Apr 15:51:56 15:56:44 33° 266° (W) 16:01:31 435.225
JAS-2 21 Apr 15:54:52 16:02:33 61° 68° (ENE) 16:10:04 435.910
RS-15 21 Apr 15:55:49 16:06:14 56° 117° (ESE) 16:17:00 29.354- 29.394
ISS 21 Apr 15:58:46 16:02:01 69° 159° (SSE) 16:05:17 145.825
PCSat 21 Apr 16:05:22 16:08:44 16° 18° (NNE) 16:12:11 145.827
BEESAT 21 Apr 16:11:47 16:16:11 37° 294° (WNW) 16:20:32 436.000
SWISSCUBE 21 Apr 16:13:33 16:17:52 34° 295° (WNW) 16:22:07 437.505
AO-7 21 Apr 16:21:12 16:29:31 86° 250° (WSW) 16:37:53 29.400- 29.500
Cosmos 2504 21 Apr 16:27:46 16:36:02 39° 296° (WNW) 16:44:04 435.465 / 435.565
SO-50 21 Apr 16:34:27 16:38:03 20° 339° (NNW) 16:41:42 436.795
Cubesat XI-IV 21 Apr 16:36:59 16:38:34 11° 49° (NE) 16:40:22 437.490
STARS 21 Apr 16:52:00 16:56:29 90° 331° (NNW) 17:00:57 437.465
GONETS M04 21 Apr 17:08:05 17:16:07 44° 87° (E) 17:24:21
HORYU 2 21 Apr 17:10:02 17:13:38 22° 269° (W) 17:17:09 437.375
MOZHAYETS 4 21 Apr 17:15:59 17:19:36 22° 91° (E) 17:23:14
ITUPSAT 1 21 Apr 17:17:15 17:19:30 13° 306° (NW) 17:21:34 437.325
KKS-1 21 Apr 17:22:50 17:26:53 33° 294° (WNW) 17:30:53 437.445
ISS 21 Apr 17:35:12 17:38:28 64° 360° (N) 17:41:43 145.825
JAS-2 21 Apr 17:40:42 17:47:56 38° 268° (W) 17:54:57 435.910
CUSAT 1 21 Apr 17:42:03 17:44:19 16° 82° (E) 17:47:04 437.405
PCSat 21 Apr 17:48:31 17:53:39 41° 42° (NE) 17:58:48 145.827
DANDE 21 Apr 17:51:55 17:53:31 13° 81° (E) 17:55:28 436.750
CUTE-I 21 Apr 18:04:25 18:09:28 47° 67° (ENE) 18:14:35 437.470
RS-15 21 Apr 18:07:52 18:18:42 61° 324° (NW) 18:29:54 29.354- 29.394
Cubesat XI-IV 21 Apr 18:12:29 18:17:39 54° 69° (ENE) 18:22:52 437.490
AO-7 21 Apr 18:17:23 18:23:40 22° 273° (W) 18:29:39 29.400- 29.500
SO-50 21 Apr 18:17:29 18:20:21 15° 4° (N) 18:23:15 436.795
STARS 21 Apr 18:29:56 18:32:21 14° 303° (WNW) 18:34:38 437.465
Cosmos 2504 21 Apr 18:30:02 18:32:45 11° 323° (NW) 18:35:00 435.465 / 435.565
CUBESAT XI-V 21 Apr 18:40:14 18:42:42 15° 86° (E) 18:45:21 437.345
M-CUBED/EXP-1 PRIME 21 Apr 18:42:41 18:45:04 15° 91° (E) 18:47:31 437.505
MOZHAYETS 4 21 Apr 18:52:39 18:57:08 50° 290° (WNW) 19:01:33
GONETS M04 21 Apr 19:04:23 19:12:56 52° 290° (WNW) 19:21:32
Cosmos 2499 21 Apr 19:08:40 19:16:53 46° 88° (E) 19:25:02 435.465 / 435.565
HO-68 21 Apr 19:11:32 19:16:51 24° 50° (NE) 19:22:20 435.675
ISS 21 Apr 19:11:38 19:14:55 80° 199° (SSW) 19:18:11 145.825
CUSAT 1 21 Apr 19:22:57 19:26:23 45° 291° (WNW) 19:30:54 437.405
AUBIESAT-1 21 Apr 19:28:18 19:32:20 34° 101° (E) 19:36:05 437.475
PCSat 21 Apr 19:32:01 19:37:10 44° 243° (WSW) 19:42:17 145.827
DANDE 21 Apr 19:32:50 19:36:01 46° 289° (WNW) 19:40:12 436.750
PRISM 21 Apr 19:33:29 19:36:57 26° 94° (E) 19:40:27 437.425
COMPASS 1 21 Apr 19:44:04 19:44:20 10° 55° (NE) 19:44:47 437.405
CUTE-I 21 Apr 19:45:05 19:49:46 30° 266° (W) 19:54:26 437.470
BRITE-PL 21 Apr 19:46:56 19:50:21 26° 64° (ENE) 19:53:56 437.365/2234.400
Cubesat XI-IV 21 Apr 19:53:39 19:58:07 26° 268° (W) 20:02:30 437.490
GOMX 1 21 Apr 19:57:47 20:01:03 23° 62° (ENE) 20:04:31 467.674
SO-50 21 Apr 19:58:24 20:02:31 26° 27° (NNE) 20:06:40 436.795
SEEDS 21 Apr 19:59:43 20:02:23 17° 60° (ENE) 20:05:11 437.485
CANX-2 21 Apr 19:59:50 20:03:01 21° 63° (ENE) 20:06:19 2200.000
CUTE 1.7 + AOD 2 21 Apr 20:09:27 20:12:50 23° 64° (ENE) 20:16:18 437.475
STRAND 1 21 Apr 20:10:41 20:15:36 47° 99° (E) 20:20:32 437.568
VERMONT LUNAR 21 Apr 20:14:30 20:16:02 13° 166° (SSE) 20:17:37 437.305
M-CUBED/EXP-1 PRIME 21 Apr 20:16:05 20:20:38 75° 293° (WNW) 20:24:46 437.505
CUBESAT XI-V 21 Apr 20:16:10 20:20:48 78° 286° (WNW) 20:25:25 437.345
RS-15 21 Apr 20:23:31 20:33:43 39° 356° (N) 20:44:20 29.354- 29.394
AAUSAT CUBESAT 2 21 Apr 20:27:13 20:30:24 21° 63° (ENE) 20:33:40 437.432
DELFI C3 21 Apr 20:34:40 20:35:17 10° 56° (ENE) 20:36:06 145.870
CINEMA 3 21 Apr 20:36:15 20:39:30 21° 61° (ENE) 20:42:58 145.822/145.860
ISS 21 Apr 20:48:24 20:50:57 21° 217° (SW) 20:53:27 145.825
ZACube-1 21 Apr 20:51:48 20:53:42 13° 56° (NE) 20:55:46 437.345
YUBILEINY 21 Apr 20:54:03 20:59:57 20° 49° (NE) 21:06:08 435.215
DOVE 4 21 Apr 20:55:01 20:59:07 52° 71° (ENE) 21:03:28 437.250
HO-68 21 Apr 20:56:31 21:03:43 84° 71° (ENE) 21:10:59 435.675
Oscar 11 21 Apr 21:00:00 21:03:28 24° 63° (ENE) 21:06:59 145.826/435.025
Cosmos 2499 21 Apr 21:01:25 21:10:04 52° 290° (WNW) 21:18:27 435.465 / 435.565
AUBIESAT-1 21 Apr 21:03:06 21:07:06 32° 301° (WNW) 21:10:47 437.475
CUBEBUG 2 21 Apr 21:05:26 21:08:51 23° 62° (ENE) 21:12:25 437.445
GONETS M04 21 Apr 21:07:41 21:12:33 15° 318° (NW) 21:17:02
PRISM 21 Apr 21:08:44 21:12:31 35° 293° (WNW) 21:16:15 437.425
